Regional Weather Roundup
Issued by NWS State College, PA

Home | Current Version | Previous Version | Text Only | Print | Product List | Glossary On
Versions: 1 2 3 4 5 6 7 8 9 10 11 12 13 14 15 16 17 18 19 20 21 22 23 24 25 26 27 28 29 30 31 32 33 34 35 36 37 38 39 40 41 42 43 44 45 46 47 48 49 50
000
ASUS41 KCTP 220710
RWRCTP

REGIONAL WEATHER ROUNDUP
NATIONAL WEATHER SERVICE STATE COLLEGE PA
200 AM EST WED FEB 22 2017

Note: "fair" indicates few or no clouds below 12,000 feet with no
significant weather and/or obstructions to visibility.

* = STATION THAT DOES NOT REPORT PRECIPITATION /E.G. RAIN...SNOW...ETC/
    THUNDER OR FOG.

PAZ002>004-007>009-013>016-020>023-029>032-220800-
WESTERN PENNSYLVANIA

CITY           SKY/WX    TMP DP  RH WIND       PRES   REMARKS
ERIE           CLOUDY    52  44  74 S3        29.91F
MEADVILLE      CLOUDY    53  42  66 S5        29.93S
FRANKLIN*      CLOUDY    48  36  61 S5        29.95S
NEW CASTLE     CLOUDY    49  44  83 CALM      29.94F
BEAVER COUNTY  NOT AVBL
BUTLER*        CLOUDY    50  43  76 CALM      29.96S
PITTSBURGH INT CLOUDY    54  44  69 S3        29.94F
PITTSBURGH     CLOUDY    55  38  52 S5        29.94F
INDIANA*       CLOUDY    52  37  58 CALM      29.98F
LATROBE        CLOUDY    50  37  62 MISG      29.96S
WASHINGTON CO* CLOUDY    52  43  71 CALM      29.97S
$$

PAZ004>006-010>012-017>019-024>028-033>037-041-042-045-046-049>053-220800-
CENTRAL PENNSYLVANIA

CITY           SKY/WX    TMP DP  RH WIND       PRES   REMARKS
BRADFORD       PTCLDY    42  31  64 SE5       29.95F
DUBOIS         CLOUDY    46  32  58 E6        29.95F
CLEARFIELD       N/A    N/A N/A N/A MISG      29.98F
JOHNSTOWN      CLOUDY    49  35  58 SW8       29.96F
ALTOONA        CLOUDY    47  34  60 CALM      29.99F
STATE COLLEGE  CLOUDY    45  33  62 SW5       30.00S
WILLIAMSPORT   NOT AVBL
SELINSGROVE    NOT AVBL
FT INDIANTOWN  CLOUDY    39  37  93 NE3       30.05F
CAPITAL CITY   NOT AVBL
HARRISBURG     CLOUDY    43  36  76 E6        30.04F
YORK           NOT AVBL
$$

PAZ038>040-043-044-047-048-054-055-060>062-067>071-220800-
EASTERN PENNSYLVANIA

CITY           SKY/WX    TMP DP  RH WIND       PRES   REMARKS
SCRANTON       NOT AVBL
MOUNT POCONO   NOT AVBL
ALLENTOWN      NOT AVBL
QUAKERTOWN*    CLOUDY    39  32  75 CALM      30.07F
READING        NOT AVBL
LANCASTER      NOT AVBL
COATESVILLE    MOSUNNY   39  36  87 S5        30.07F
POTTSTOWN      NOT AVBL
BLUE BELL      CLOUDY    41  34  75 SW3       30.07F
DOYLESTOWN     NOT AVBL
WILLOW GROVE   NOT AVBL
NORTH PHILA    NOT AVBL
PHILADELPHIA   CLOUDY    42  36  79 S3        30.10F
$$




USA.gov is the U.S. government's official web portal to all federal, state and local government web resources and services.